Overview Statistics Trail Chart Weather Telemetry Raw packets
 

This is the latest recevied weather packets stored in our database for station/object NK7E-2. If no packets are shown the sender has not sent any weather packets the latest 10 day(s).

<< 53 54 55 56 57 58 >>
Time Temp. Humidity Pressure Rain* Wind** Luminosity Snow
1787645118 28.89° C 37% 1029.3 hPa 0 mm - - -
1787644517 28.89° C 37% 1029.3 hPa 0 mm - - -
1787643917 28.33° C 37% 1029.4 hPa 0 mm - - -
1787643317 27.78° C 39% 1029.3 hPa 0 mm - - -
1787642717 28.33° C 38% 1029.4 hPa 0 mm - - -
1787642117 28.33° C 38% 1029.4 hPa 0 mm - - -
1787641517 28.89° C 37% 1029.5 hPa 0 mm - - -
1787640917 28.89° C 36% 1029.6 hPa 0 mm - - -
1787640317 29.44° C 36% 1029.6 hPa 0 mm - - -
1787639717 28.89° C 36% 1029.4 hPa 0 mm - - -
1787639117 28.89° C 36% 1029.3 hPa 0 mm - - -
1787638517 30° C 34% 1029.5 hPa 0 mm - - -
1787637917 30° C 34% 1029.4 hPa 0 mm - - -
1787637317 30° C 33% 1029.4 hPa 0 mm - - -
1787636717 30° C 34% 1029.4 hPa 0 mm - - -
1787636117 30° C 34% 1029.3 hPa 0 mm - - -
1787635517 30.56° C 33% 1029.6 hPa 0 mm - - -
1787634917 30.56° C 34% 1029 hPa 0 mm - - -
1787634317 30.56° C 33% 1029.3 hPa 0 mm - - -
1787633717 30.56° C 33% 1029.4 hPa 0 mm - - -
1787633117 31.11° C 33% 1029.2 hPa 0 mm - - -
1787632517 31.11° C 32% 1029.2 hPa 0 mm - - -
1787631917 31.11° C 33% 1029.3 hPa 0 mm - - -
1787631317 31.11° C 32% 1029.2 hPa 0 mm - - -
1787630717 31.67° C 31% 1029.3 hPa 0 mm - - -

* Rain latest hour (hover to see other rain measurements)
** Current wind speed in m/s (hover to see current wind gust speed)